[TLELIST] Archives

 

[list_settings.list_name] Current TLEs

April 18th 2011 PST

HST 1 20580U 90037B 11106.16251948 .00001456 00000-0 97808-4 0 7483 2 20580 028.4693 061.6004 0003693 180.6215 179.4373 15.01286098950323 ISS (ZARYA) 1 25544U 98067A 11108.17240692 .00028144 00000-0 20052-3 0 2075 2 25544 051.6437 108.9394 0002954 117.1133 334.7581 15.73593924711456 CXO 1 25867U 99040B 11108.12500000 .00000151 00000-0 00000+0 0 5935 2 25867 068.9579 035.7028 8559224 276.3283 354.0065 00.37808601 7547 ____________________________________________________________________ These 2-Line ...Continue Reading

[list_settings.list_name] Current TLEs

April 17th 2011 PST

HST 1 20580U 90037B 11106.16251948 .00001456 00000-0 97808-4 0 7483 2 20580 028.4693 061.6004 0003693 180.6215 179.4373 15.01286098950323 ISS (ZARYA) 1 25544U 98067A 11107.16125968 .00009878 00000-0 73636-4 0 2026 2 25544 051.6401 114.1254 0002406 104.1197 015.8961 15.73511621711294 CXO 1 25867U 99040B 11108.12500000 .00000151 00000-0 00000+0 0 5935 2 25867 068.9579 035.7028 8559224 276.3283 354.0065 00.37808601 7547 ____________________________________________________________________ These 2-Line ...Continue Reading

[list_settings.list_name] Current TLEs

April 16th 2011 PST

HST 1 20580U 90037B 11106.16251948 .00001456 00000-0 97808-4 0 7483 2 20580 028.4693 061.6004 0003693 180.6215 179.4373 15.01286098950323 ISS (ZARYA) 1 25544U 98067A 11106.52949977 .00025152 00000-0 18050-3 0 1984 2 25544 051.6446 117.3732 0003142 114.8592 024.0462 15.73494515711193 CXO 1 25867U 99040B 11108.12500000 .00000151 00000-0 00000+0 0 5935 2 25867 068.9579 035.7028 8559224 276.3283 354.0065 00.37808601 7547 ____________________________________________________________________ These 2-Line ...Continue Reading

[list_settings.list_name] Current TLEs

April 15th 2011 PST

HST 1 20580U 90037B 11105.09885943 .00001479 00000-0 99568-4 0 7471 2 20580 028.4689 068.5457 0003626 168.5029 191.5610 15.01283494950168 ISS (ZARYA) 1 25544U 98067A 11105.51290859 .00030972 00000-0 22153-3 0 1930 2 25544 051.6448 122.5879 0002899 109.5600 027.0014 15.73448720711030 CXO 1 25867U 99040B 11105.50000000 .00000401 00000-0 00000+0 0 5926 2 25867 068.9357 035.8395 8553611 276.3423 356.6127 00.37806355 7539 ____________________________________________________________________ These 2-Line ...Continue Reading

[list_settings.list_name] Current TLEs

April 14th 2011 PST

HST 1 20580U 90037B 11103.23744914 .00001578 00000-0 10714-3 0 7461 2 20580 028.4683 080.7005 0003489 147.4577 212.6114 15.01279103949881 ISS (ZARYA) 1 25544U 98067A 11104.37002694 .00033000 00000-0 23645-3 0 1887 2 25544 051.6445 128.4487 0002760 107.4341 031.1448 15.73373179710854 CXO 1 25867U 99040B 11105.50000000 .00000401 00000-0 00000+0 0 5926 2 25867 068.9357 035.8395 8553611 276.3423 356.6127 00.37806355 7539 ____________________________________________________________________ These 2-Line ...Continue Reading

[list_settings.list_name] Current TLEs

April 13th 2011 PST

HST 1 20580U 90037B 11103.23744914 .00001578 00000-0 10714-3 0 7461 2 20580 028.4683 080.7005 0003489 147.4577 212.6114 15.01279103949881 ISS (ZARYA) 1 25544U 98067A 11103.48158473 .00041070 00000-0 29352-3 0 1848 2 25544 051.6461 133.0097 0002871 102.0582 040.9545 15.73324831710714 CXO 1 25867U 99040B 11102.83333333 .00000440 00000-0 00000+0 0 5919 2 25867 068.9055 036.0454 8551756 276.3281 353.5193 00.37809002 7523 ____________________________________________________________________ These 2-Line ...Continue Reading

[list_settings.list_name] Current TLEs

April 12th 2011 PST

HST 1 20580U 90037B 11101.24307644 .00001730 00000-0 11863-3 0 7450 2 20580 028.4688 093.7242 0003574 126.7983 233.2892 15.01274484949585 ISS (ZARYA) 1 25544U 98067A 11102.53027382 .00031607 00000-0 22792-3 0 1775 2 25544 051.6452 137.8855 0002852 102.6333 048.7012 15.73246303710562 CXO 1 25867U 99040B 11102.83333333 .00000440 00000-0 00000+0 0 5919 2 25867 068.9055 036.0454 8551756 276.3281 353.5193 00.37809002 7523 ____________________________________________________________________ These 2-Line ...Continue Reading

[list_settings.list_name] Current TLEs

April 11th 2011 PST

HST 1 20580U 90037B 11101.24307644 .00001730 00000-0 11863-3 0 7450 2 20580 028.4688 093.7242 0003574 126.7983 233.2892 15.01274484949585 ISS (ZARYA) 1 25544U 98067A 11101.37628233 .00032616 00000-0 23573-3 0 1698 2 25544 051.6455 143.8057 0002743 098.2314 353.0153 15.73176289710387 CXO 1 25867U 99040B 11102.83333333 .00000440 00000-0 00000+0 0 5919 2 25867 068.9055 036.0454 8551756 276.3281 353.5193 00.37809002 7523 ____________________________________________________________________ These 2-Line ...Continue Reading

[list_settings.list_name] Current TLEs

April 10th 2011 PST

HST 1 20580U 90037B 11100.17940737 .00001799 00000-0 12391-3 0 7448 2 20580 028.4687 100.6738 0003545 118.1563 241.9340 15.01271698949420 ISS (ZARYA) 1 25544U 98067A 11100.37457176 .00040557 00000-0 29263-3 0 1654 2 25544 051.6438 148.9441 0002406 085.9978 088.4197 15.73108459710220 CXO 1 25867U 99040B 11100.20833333 .00000320 00000-0 00000+0 0 5909 2 25867 068.8873 036.2778 8547485 276.2989 356.1175 00.37803232 7516 ____________________________________________________________________ These 2-Line ...Continue Reading

[list_settings.list_name] Current TLEs

April 9th 2011 PST

HST 1 20580U 90037B 11099.18221562 .00001823 00000-0 12577-3 0 7437 2 20580 028.4691 107.1851 0003507 110.0281 250.0659 15.01268680949273 ISS (ZARYA) 1 25544U 98067A 11099.34491443 .00060317 00000-0 43331-3 0 1594 2 25544 051.6459 154.2258 0002705 084.1122 015.3460 15.73038225710060 CXO 1 25867U 99040B 11100.20833333 .00000320 00000-0 00000+0 0 5909 2 25867 068.8873 036.2778 8547485 276.2989 356.1175 00.37803232 7516 ____________________________________________________________________ These 2-Line ...Continue Reading
  • This mailing list is a public mailing list - anyone may join or leave, at any time.
  • This mailing list is announce-only.

International Space Station (ISS) / Hubble Space Telescope (HST) / Chandra X-Ray Observatory Orbital Data via EMAIL

Privacy Policy:

Private list